Date,TemperatureHighF,TemperatureAvgF,TemperatureLowF,DewpointHighF,DewpointAvgF,DewpointLowF,HumidityHigh,HumidityAvg,HumidityLow,PressureMaxIn,PressureMinIn,WindSpeedMaxMPH,WindSpeedAvgMPH,GustSpeedMaxMPH,PrecipitationSumIn
2013-1-1,37.5,33.1,25.7,29.0,23.0,13.9,77,67,56,29.91,29.75,5,3,8,0.05
2013-1-2,30.7,24.9,18.1,17.4,13.0,7.6,73,60,51,30.07,29.91,5,3,9,0.00
2013-1-3,23.4,19.0,13.1,15.2,9.9,4.5,85,68,51,30.15,30.04,3,2,4,0.00
2013-1-4,36.4,30.7,18.3,29.9,23.2,12.1,81,74,64,30.05,29.86,5,2,8,0.07
2013-1-5,40.7,34.4,29.8,26.8,24.4,22.0,79,67,53,30.28,29.89,5,2,8,0.06
2013-1-6,39.6,34.6,31.2,36.7,31.5,23.4,96,89,70,30.25,29.96,3,1,8,0.04
2013-1-7,41.0,34.1,29.3,35.0,29.8,25.2,94,85,74,30.43,29.99,5,2,9,0.00
2013-1-8,43.8,38.5,32.8,37.3,35.1,30.2,94,87,76,30.42,30.32,4,2,11,0.00
2013-1-9,45.2,38.0,30.0,41.8,36.2,29.3,97,93,73,30.42,30.05,5,1,12,0.01
2013-1-10,45.1,41.4,37.2,36.2,30.1,26.0,77,64,49,30.51,30.07,5,3,13,0.00
2013-1-11,41.5,37.3,30.8,37.4,32.8,28.3,94,84,74,30.51,30.25,4,1,13,0.06
2013-1-12,44.9,42.0,37.5,42.3,40.3,35.7,97,93,85,30.27,30.15,5,2,13,0.04
2013-1-13,45.1,43.3,41.6,44.8,42.7,40.5,99,98,96,30.19,30.06,3,1,13,0.03
2013-1-14,51.6,44.9,41.9,51.6,43.5,36.4,100,95,70,30.26,29.98,5,2,13,0.01
2013-1-15,42.7,40.2,38.3,39.4,37.5,35.4,96,90,81,30.27,30.21,4,1,13,0.14
2013-1-16,42.8,39.4,36.3,42.3,38.6,35.5,98,97,90,30.24,29.74,8,2,10,0.66
2013-1-17,42.4,37.1,33.2,35.4,32.1,25.1,98,83,65,30.08,29.87,5,2,7,0.00
2013-1-18,32.9,23.0,17.8,25.8,12.1,1.8,96,65,43,30.50,30.02,7,3,15,0.00
2013-1-19,43.3,37.8,17.6,39.4,33.1,6.2,95,83,60,30.46,30.00,8,5,13,0.04
2013-1-20,47.2,42.0,30.9,41.8,36.1,14.0,97,81,49,29.99,29.61,7,4,12,0.01
2013-1-21,31.4,27.5,24.0,27.0,15.5,8.0,96,63,42,30.12,29.79,4,2,8,0.00
2013-1-22,28.0,23.3,15.2,27.0,13.6,1.0,96,69,38,30.07,29.72,5,2,11,0.00
2013-1-23,16.0,12.8,9.2,3.8,-2.0,-5.0,72,51,42,30.16,30.06,5,3,10,0.00
2013-1-24,18.8,13.0,5.8,7.0,-0.5,-5.3,72,55,38,30.19,30.03,7,4,17,0.00
2013-1-25,24.5,17.4,10.5,9.6,2.8,-2.4,62,52,40,30.32,30.06,4,2,6,0.00
2013-1-26,25.4,22.1,18.8,20.8,14.3,3.2,92,73,46,30.19,29.97,6,3,13,0.00
2013-1-27,28.1,22.3,16.6,13.9,9.8,6.8,73,59,45,30.47,30.19,6,3,13,0.00
2013-1-28,33.7,25.7,17.4,32.9,16.4,5.3,97,69,42,30.46,30.02,3,1,4,0.05
2013-1-29,38.1,35.5,33.3,37.3,34.6,32.5,97,97,95,30.23,30.00,5,1,6,0.18
2013-1-30,48.3,42.3,35.8,48.0,41.7,34.9,99,98,96,30.18,29.62,9,6,14,0.09
2013-1-31,50.6,42.8,33.0,50.3,38.7,15.4,100,86,47,29.62,29.12,13,6,18,0.08
2013-2-1,33.5,29.7,24.2,18.2,12.3,8.2,63,48,39,30.09,29.63,5,3,13,0.00
2013-2-2,31.1,25.9,19.7,26.5,14.0,4.9,91,61,41,30.28,30.07,4,2,5,0.00
2013-2-3,32.7,27.9,22.1,29.9,25.6,20.6,96,91,80,30.07,29.65,4,1,8,0.04
2013-2-4,30.6,26.2,22.7,25.2,14.4,8.4,93,63,41,29.97,29.68,6,3,11,0.00
2013-2-5,31.7,26.1,23.0,30.9,19.8,10.6,97,78,57,30.05,29.93,4,2,5,0.00
2013-2-6,36.5,32.1,28.8,32.7,27.2,14.8,97,83,54,30.27,29.91,3,1,5,0.06
2013-2-7,29.3,25.9,21.7,23.3,15.5,10.7,83,65,50,30.53,30.28,5,2,10,0.00
2013-2-8,34.9,32.1,29.3,33.1,29.1,23.3,98,89,78,30.50,29.28,24,12,32,0.14
2013-2-9,31.4,22.9,20.0,30.9,21.9,18.6,98,96,94,30.09,29.22,20,9,29,0.00
2013-2-10,31.1,24.7,20.0,25.5,21.3,18.5,95,87,66,30.40,30.10,6,2,11,0.01
2013-2-11,42.3,35.6,25.4,41.8,34.4,23.9,99,95,89,30.39,29.63,10,4,16,0.42
2013-2-12,45.0,39.4,33.3,42.6,32.3,26.9,99,77,52,29.89,29.61,5,3,7,0.01
2013-2-13,41.1,33.9,29.8,31.6,27.2,23.2,91,77,54,29.90,29.68,3,1,8,0.00
2013-2-14,40.5,34.6,31.4,31.4,28.7,25.5,96,80,57,30.06,29.69,3,1,16,0.22
2013-2-15,42.9,38.3,34.3,38.1,35.5,31.2,97,90,82,30.08,29.97,4,2,16,0.01
2013-2-16,41.0,36.9,33.9,36.7,34.8,32.7,98,92,81,29.97,29.63,7,3,16,0.00
2013-2-17,34.8,25.3,20.4,32.7,20.0,4.1,96,82,46,29.62,29.23,11,7,22,0.00
2013-2-18,31.6,24.0,17.2,10.1,5.8,2.4,62,47,30,30.17,29.63,8,5,17,0.00
2013-2-19,42.7,35.8,25.5,41.9,28.0,5.1,97,75,41,30.18,29.62,12,4,16,0.56
2013-2-20,40.9,33.5,25.8,40.4,24.2,11.0,98,71,46,29.80,29.57,5,3,16,0.03
2013-2-21,33.0,28.5,24.8,27.5,17.5,14.1,81,64,51,30.08,29.79,7,4,16,0.00
2013-2-22,36.5,34.5,31.7,29.9,27.5,25.8,89,76,68,30.36,30.08,7,3,16,0.00
2013-2-23,38.8,35.7,31.4,38.0,32.3,27.8,97,87,78,30.36,29.89,7,4,16,0.35
2013-2-24,43.0,38.7,31.9,42.2,37.9,31.2,98,97,96,29.88,29.53,12,7,16,1.40
2013-2-25,40.9,34.4,29.4,33.0,28.6,24.0,98,80,56,30.26,29.84,7,3,16,0.11
2013-2-26,41.1,35.8,28.4,35.6,29.2,23.5,95,77,58,30.36,30.16,6,3,16,0.00
2013-2-27,44.2,41.8,39.1,43.7,40.7,35.3,98,96,84,30.16,29.57,14,9,16,0.45
2013-2-28,43.4,39.1,36.0,41.2,38.1,34.7,98,96,91,29.66,29.54,3,1,16,0.02
2013-3-1,39.7,36.6,35.2,33.2,32.6,32.0,92,86,76,29.67,29.60,6,2,18,0.00
2013-3-2,42.7,37.2,34.8,33.4,31.3,29.6,92,80,60,29.68,29.62,4,1,18,0.00
2013-3-3,39.4,36.0,34.1,33.9,31.5,30.3,94,84,75,29.64,29.57,3,1,18,0.00
2013-3-4,40.0,34.7,31.5,31.6,28.0,24.8,94,77,56,29.69,29.57,5,3,18,0.00
2013-3-5,41.2,36.4,33.3,38.3,32.9,27.8,96,87,79,30.06,29.69,7,3,18,0.09
2013-3-6,40.1,38.1,34.8,36.2,34.8,33.3,96,88,79,30.07,29.92,17,11,21,0.03
2013-3-7,37.6,35.5,34.0,35.8,34.7,33.2,98,97,90,29.91,29.82,17,15,23,0.42
2013-3-8,40.8,35.6,33.1,37.2,33.8,31.7,98,94,70,30.04,29.81,15,12,18,0.61
2013-3-9,38.8,36.6,35.4,33.0,32.1,31.0,88,84,77,30.31,30.04,12,9,20,0.00
2013-3-10,39.5,37.3,35.1,33.8,32.4,31.3,87,83,77,30.41,30.31,7,4,18,0.00
2013-3-11,43.7,39.2,35.5,39.5,36.4,32.0,96,90,80,30.36,30.21,6,3,18,0.00
2013-3-12,46.8,44.5,40.5,46.3,43.5,39.4,98,96,94,30.22,29.79,11,7,18,0.13
2013-3-13,47.7,46.0,43.3,47.4,45.5,42.8,99,98,98,29.80,29.74,12,5,19,0.65
2013-3-14,35.0,30.5,25.3,23.7,15.3,11.4,65,53,44,29.81,29.70,5,3,18,0.00
2013-3-15,37.6,30.3,22.5,29.0,17.2,9.5,75,58,34,29.88,29.68,5,4,12,0.00
2013-3-16,38.1,34.1,30.9,27.9,21.8,17.2,74,61,49,29.88,29.69,4,2,12,0.00
2013-3-17,38.3,32.6,25.3,27.8,20.2,12.1,93,62,41,30.30,29.87,6,2,12,0.00
2013-3-18,32.7,29.1,24.0,27.4,17.4,8.3,91,62,45,30.46,30.27,6,3,12,0.00
2013-3-19,42.3,36.4,30.1,41.8,35.4,27.3,98,96,88,30.27,29.49,13,8,19,0.45
2013-3-20,42.0,34.2,27.8,31.4,26.0,20.3,95,73,48,29.85,29.62,6,3,12,0.00
2013-3-21,40.2,35.1,28.8,33.3,29.7,25.7,96,81,58,29.85,29.57,9,4,12,0.00
2013-3-22,38.2,33.5,30.0,31.6,28.3,24.3,97,82,66,29.75,29.57,3,1,12,0.40
2013-3-23,42.7,35.8,28.6,26.8,22.6,19.5,77,60,40,29.78,29.64,5,3,14,0.04
2013-3-24,43.1,36.5,31.5,29.8,26.0,21.3,86,66,46,29.84,29.76,6,3,9,0.00
2013-3-25,42.9,37.4,31.2,35.7,31.2,27.6,92,79,61,29.77,29.44,12,7,17,0.00
2013-3-26,45.5,39.1,34.6,35.2,29.4,23.1,90,69,41,29.77,29.44,11,4,17,0.01
2013-3-27,49.6,41.3,31.4,38.5,31.7,26.0,90,70,43,29.84,29.75,7,2,9,0.00
2013-3-28,46.6,40.7,36.9,38.4,34.5,28.9,95,80,52,30.02,29.83,9,3,11,0.07
2013-3-29,53.6,43.8,35.7,40.6,35.9,32.2,87,74,54,30.05,30.00,4,1,9,0.00
2013-3-30,51.8,43.8,38.7,39.6,36.4,32.3,92,76,48,30.12,30.03,5,2,8,0.00
2013-3-31,48.5,42.5,32.0,42.9,38.7,30.2,95,87,76,30.15,29.81,12,3,14,0.03
2013-4-1,48.9,45.1,37.3,46.0,42.1,20.8,98,90,51,29.79,29.59,15,5,18,0.14
2013-4-2,41.6,36.1,30.4,27.8,18.1,10.1,63,48,30,29.99,29.78,5,3,12,0.00
2013-4-3,46.3,37.5,30.4,22.3,15.4,12.3,55,41,26,30.15,29.95,6,3,8,0.00
2013-4-4,44.8,38.4,32.6,35.8,25.0,15.2,85,60,30,30.32,30.13,6,4,12,0.00
2013-4-5,47.3,42.1,39.9,44.8,39.3,33.4,96,90,70,30.12,29.66,6,2,10,0.07
2013-4-6,42.1,37.6,34.5,32.9,20.7,11.1,77,52,29,30.37,29.85,7,4,12,0.00
2013-4-7,47.5,41.5,32.0,43.3,35.0,27.2,89,78,58,30.37,30.08,8,4,11,0.00
2013-4-8,60.4,49.6,43.2,48.6,42.7,38.0,96,79,52,30.15,30.00,8,3,11,0.00
2013-4-9,58.7,48.7,42.7,51.5,45.1,40.5,98,88,75,30.14,29.87,7,3,10,0.00
2013-4-10,51.7,46.0,42.8,46.8,43.3,41.5,96,90,80,30.03,29.89,8,4,10,0.32
2013-4-11,47.5,44.1,42.2,44.8,40.1,37.1,97,86,70,30.15,29.82,9,4,13,0.05
2013-4-12,43.0,41.2,36.6,42.5,36.6,28.9,98,84,60,30.17,29.66,12,7,14,0.75
2013-4-13,46.3,41.2,38.4,42.3,38.6,37.1,98,91,71,29.97,29.67,12,4,12,0.06
2013-4-14,52.5,46.1,41.1,46.5,39.1,31.6,97,78,51,30.21,29.95,4,1,8,0.00
2013-4-15,49.9,44.0,39.1,40.7,37.9,32.1,95,80,63,30.45,30.20,6,3,8,0.00
2013-4-16,53.5,47.0,40.9,47.6,43.8,39.5,96,89,78,30.46,30.16,8,4,11,0.00
2013-4-17,59.7,50.8,43.3,51.0,43.3,35.1,98,78,41,30.35,30.12,7,3,12,0.01
2013-4-18,50.4,46.5,40.4,45.8,40.2,36.3,93,79,62,30.45,30.22,8,5,16,0.00
2013-4-19,58.0,54.0,48.1,57.4,52.9,46.2,98,96,92,30.21,29.81,10,6,16,0.01
2013-4-20,59.2,51.2,43.7,58.6,49.2,39.1,99,93,79,30.20,29.71,12,4,24,0.42
2013-4-21,46.6,41.8,37.7,38.8,29.0,25.7,79,61,50,30.68,30.20,8,4,12,0.00
2013-4-22,46.9,41.8,35.9,40.0,33.9,29.7,84,74,55,30.74,30.58,11,7,15,0.00
2013-4-23,43.5,42.6,40.5,42.7,41.2,36.0,98,95,82,30.57,29.98,11,8,13,1.01
2013-4-24,54.3,46.6,42.5,50.2,45.2,42.0,98,95,85,29.99,29.80,8,5,22,0.14
2013-4-25,58.1,50.3,44.8,52.5,46.1,39.7,98,87,51,30.27,29.94,6,2,11,0.04
2013-4-26,54.6,47.2,40.7,43.7,41.2,38.4,97,81,56,30.44,30.27,8,3,11,0.01
2013-4-27,55.5,47.4,38.6,44.8,39.2,34.9,97,75,52,30.45,30.35,4,1,8,0.00
2013-4-28,57.5,49.7,41.2,48.1,43.8,35.5,93,80,67,30.39,30.30,3,1,8,0.00
2013-4-29,60.1,50.6,44.2,49.2,43.9,39.2,97,79,47,30.33,30.27,5,2,9,0.00
2013-4-30,58.3,50.5,42.4,43.0,35.6,23.0,90,60,26,30.39,30.28,5,2,8,0.00
2013-5-1,55.4,48.8,43.5,49.0,45.1,42.3,97,87,71,30.50,30.38,6,2,9,0.00
2013-5-2,63.4,51.0,42.4,53.5,45.9,40.6,97,84,54,30.48,30.40,9,2,12,0.00
2013-5-3,49.8,45.0,39.5,44.2,41.9,37.9,96,89,80,30.49,30.38,10,4,16,0.01
2013-5-4,49.7,45.6,41.8,42.7,40.9,38.2,97,84,67,30.38,30.32,11,6,15,0.00
2013-5-5,52.7,46.8,43.3,44.6,42.6,40.7,94,86,70,30.32,30.29,8,5,10,0.00
2013-5-6,55.4,46.2,41.1,49.7,44.2,40.3,98,93,79,30.32,30.21,7,2,9,0.00
2013-5-7,60.5,53.2,45.4,56.5,51.6,44.9,98,94,83,30.23,30.17,6,1,10,0.00
2013-5-8,65.8,56.9,51.5,61.5,55.3,51.0,99,95,82,30.25,30.08,8,4,13,0.03
2013-5-9,62.5,54.9,51.6,61.6,53.9,51.1,99,97,88,30.08,29.92,4,2,8,0.08
2013-5-10,63.7,57.7,52.0,59.6,55.5,51.5,99,93,78,30.00,29.91,4,2,8,0.00
2013-5-11,63.8,57.4,53.7,59.9,56.2,53.1,99,96,85,29.98,29.77,10,3,13,0.48
2013-5-12,59.5,56.5,53.0,58.2,54.6,39.0,99,94,59,29.81,29.63,6,2,8,0.38
2013-5-13,57.5,51.7,44.2,44.0,39.0,33.5,71,62,48,30.01,29.82,7,3,12,0.00
2013-5-14,56.2,50.3,45.1,43.5,37.9,30.3,86,63,38,30.06,29.98,5,2,13,0.01
2013-5-15,60.2,52.7,45.2,55.4,46.1,34.9,95,79,66,30.07,29.72,11,5,16,0.07
2013-5-16,69.0,60.3,52.8,57.2,54.4,49.8,98,82,63,29.79,29.67,5,2,13,0.00
2013-5-17,63.5,57.0,50.0,50.4,45.8,42.8,89,67,49,30.24,29.78,7,3,13,0.00
2013-5-18,63.7,56.5,46.5,55.9,51.1,44.3,94,83,68,30.34,30.23,3,2,13,0.00
2013-5-19,65.8,59.0,52.8,55.8,53.1,50.5,96,82,65,30.39,30.28,4,2,13,0.06
2013-5-20,67.8,60.3,54.6,63.7,58.6,53.8,98,95,85,30.28,29.95,7,3,13,0.29
2013-5-21,63.7,59.3,55.3,60.7,58.1,54.5,98,96,89,30.00,29.90,4,1,13,0.00
2013-5-22,70.2,57.3,51.5,63.7,55.9,51.0,98,95,79,29.97,29.93,4,2,13,0.01
2013-5-23,67.0,62.4,59.2,64.2,61.4,58.6,99,97,90,29.99,29.91,8,4,13,0.27
2013-5-24,62.8,60.9,54.9,62.5,60.6,54.6,100,99,98,29.91,29.72,16,5,18,1.50
2013-5-25,55.5,51.1,43.5,54.9,50.2,42.7,100,97,85,29.75,29.67,4,2,13,0.16
2013-5-26,57.9,48.4,40.8,45.3,41.8,38.2,98,79,56,30.10,29.74,4,2,13,0.01
2013-5-27,68.9,56.9,46.1,54.4,46.3,36.9,85,69,31,30.19,30.10,4,2,13,0.00
2013-5-28,64.5,57.1,46.3,56.8,52.1,44.7,96,84,66,30.27,30.19,5,1,13,0.00
2013-5-29,62.4,57.3,54.2,60.8,56.5,53.6,99,97,93,30.25,30.05,10,4,15,0.75
2013-5-30,73.4,64.4,59.1,67.1,61.7,58.5,99,91,79,30.11,30.05,3,2,13,0.12
2013-5-31,77.8,67.1,60.2,67.7,63.1,59.3,98,87,70,30.11,30.00,3,1,13,0.00
2013-6-1,71.0,65.0,60.4,64.9,62.2,59.5,98,91,80,30.02,29.96,4,2,13,0.00
2013-6-2,69.3,64.6,61.7,65.1,62.8,60.6,98,94,86,29.97,29.86,6,4,13,0.00
2013-6-3,65.4,62.9,61.5,65.1,62.5,61.2,99,99,97,29.89,29.81,6,3,13,1.28
2013-6-4,69.5,61.6,54.5,62.6,49.6,43.8,100,67,44,30.08,29.80,4,2,13,0.00
2013-6-5,68.9,59.8,50.4,53.7,49.4,44.5,89,70,44,30.20,30.08,4,2,13,0.00
2013-6-6,65.9,60.0,56.1,59.3,54.1,50.9,88,81,72,30.23,30.11,6,2,13,0.00
2013-6-7,63.3,56.2,54.1,63.3,55.1,52.3,100,96,87,30.12,29.79,12,4,16,1.35
2013-6-8,68.9,63.0,57.4,64.8,61.8,57.1,100,96,84,30.00,29.58,11,4,15,0.08
2013-6-9,74.6,66.9,58.0,65.7,61.8,57.4,99,84,59,30.16,30.01,3,1,13,0.00
2013-6-10,69.2,61.6,55.7,60.1,57.7,55.1,98,87,68,30.21,30.03,4,2,13,0.46
2013-6-11,65.8,61.8,55.1,65.0,61.2,54.5,100,98,96,30.03,29.56,5,3,13,1.47
2013-6-12,69.7,61.0,53.8,60.2,56.6,53.2,99,86,63,29.79,29.57,6,2,13,0.00
2013-6-13,59.6,55.7,53.6,55.4,53.5,52.4,97,92,85,29.80,29.63,6,2,13,0.16
2013-6-14,59.1,54.5,50.8,55.4,52.2,50.0,98,92,74,29.76,29.55,10,5,13,0.75
2013-6-15,75.4,63.6,54.2,59.6,54.5,44.6,98,75,36,29.97,29.76,4,2,6,0.00
2013-6-16,70.8,64.5,60.0,64.2,61.5,59.3,98,90,76,29.97,29.79,5,2,10,0.00
2013-6-17,74.5,66.4,60.9,66.9,63.3,59.8,98,90,77,29.93,29.80,5,1,8,0.00
2013-6-18,72.1,64.3,60.0,66.3,61.8,58.7,98,92,81,29.94,29.87,5,2,7,0.01
2013-6-19,70.9,62.5,55.9,59.7,54.0,47.4,98,76,48,30.17,29.85,6,3,7,0.06
2013-6-20,72.4,64.1,55.2,62.1,56.9,51.5,96,78,61,30.30,30.17,5,2,9,0.00
2013-6-21,71.8,65.9,60.8,61.9,58.3,54.1,85,77,67,30.31,30.24,4,3,9,0.00
2013-6-22,75.6,67.3,62.6,66.1,62.0,57.8,96,84,64,30.26,30.18,4,2,7,0.00
2013-6-23,73.9,68.3,64.2,67.8,65.6,63.3,98,91,79,30.20,30.08,5,3,11,0.00
2013-6-24,80.0,72.9,67.0,73.6,69.8,65.8,99,90,79,30.08,29.89,4,2,7,0.00
2013-6-25,81.7,72.7,68.1,72.0,68.5,64.8,97,87,70,29.91,29.77,3,1,8,0.00
2013-6-26,83.8,74.2,67.3,74.3,70.3,66.7,98,88,72,29.85,29.73,3,1,7,0.02
2013-6-27,69.7,65.7,63.4,67.2,64.9,62.8,99,97,90,29.86,29.77,3,1,6,0.00
2013-6-28,69.6,67.3,63.8,69.1,67.0,63.5,100,99,98,29.77,29.59,8,5,17,0.70
2013-6-29,69.2,67.5,64.9,68.9,67.2,64.6,100,99,98,29.78,29.58,6,5,11,0.24
2013-6-30,72.4,68.4,66.5,71.0,67.9,66.2,99,98,95,30.00,29.78,4,2,10,0.03
2013-7-1,75.9,70.1,67.3,72.8,69.3,67.0,99,97,90,30.15,29.99,6,3,10,0.02
2013-7-2,76.1,71.3,68.2,73.3,70.3,67.6,99,97,90,30.24,30.14,4,2,10,0.22
2013-7-3,79.6,73.9,69.7,75.0,72.1,69.1,99,94,85,30.25,30.20,3,2,10,0.00
2013-7-4,80.9,74.7,70.9,76.7,72.9,70.6,99,94,84,30.23,30.15,3,2,10,0.00
2013-7-5,83.7,76.2,71.0,77.1,73.4,70.4,98,91,80,30.18,30.08,4,2,10,0.00
2013-7-6,84.8,76.9,71.6,77.6,74.0,71.0,98,91,79,30.10,29.98,3,1,10,0.00
2013-7-7,86.1,77.3,72.1,77.7,73.8,69.6,98,89,75,30.02,29.94,2,1,10,0.00
2013-7-8,83.0,76.7,72.0,75.6,73.2,71.2,99,89,77,30.04,29.94,4,2,8,0.00
2013-7-9,75.6,71.3,68.2,72.1,69.9,67.6,98,95,88,30.10,30.03,2,0,4,0.02
2013-7-10,79.7,72.6,67.1,75.5,71.4,66.5,99,96,84,30.09,29.86,5,2,9,0.00
2013-7-11,73.6,72.7,70.6,73.3,72.3,69.8,99,99,96,29.91,29.83,4,2,10,0.26
2013-7-12,71.9,68.1,64.8,71.6,67.2,64.1,99,97,88,30.18,29.91,5,2,7,0.00
2013-7-13,74.7,68.6,65.4,70.9,67.5,65.1,99,97,88,30.32,30.18,4,1,7,0.14
2013-7-14,80.9,74.0,68.3,76.7,72.6,68.0,99,96,85,30.31,30.20,3,1,7,0.01
2013-7-15,85.8,78.0,71.9,79.1,74.9,71.6,99,91,76,30.20,30.11,3,1,7,0.00
2013-7-16,88.5,78.1,71.1,75.4,71.1,65.5,98,80,61,30.17,30.08,3,1,7,0.00
2013-7-17,80.4,74.4,69.4,72.9,69.9,67.3,95,86,72,30.19,30.06,4,2,7,0.00
2013-7-18,86.5,78.2,71.8,77.3,73.2,70.3,97,86,66,30.06,29.99,4,2,7,0.00
2013-7-19,85.9,78.5,72.8,80.2,76.2,72.0,99,93,81,29.99,29.79,4,2,8,0.00
2013-7-20,84.6,79.2,75.7,78.9,76.5,72.9,98,92,82,29.81,29.69,4,2,9,0.00
2013-7-21,76.2,71.9,65.1,74.6,69.0,64.2,97,91,82,30.01,29.80,3,1,7,0.03
2013-7-22,75.4,69.0,64.9,70.6,67.7,64.0,99,96,83,30.02,29.90,4,1,7,0.00
2013-7-23,82.7,73.3,66.7,78.1,72.0,66.4,99,96,85,29.89,29.58,5,2,8,0.00
2013-7-24,85.6,78.2,70.6,78.0,74.0,66.2,99,87,73,29.87,29.58,3,2,7,0.00
2013-7-25,71.4,65.5,63.0,67.4,61.9,58.7,98,88,80,30.04,29.89,6,4,14,0.22
2013-7-26,67.3,65.1,63.5,67.0,64.8,63.1,99,99,98,30.02,29.84,7,3,12,2.21
2013-7-27,78.4,71.3,65.2,73.2,68.9,64.3,99,92,81,30.08,30.02,4,2,9,0.01
2013-7-28,78.4,71.4,67.0,73.9,70.2,66.4,99,96,86,30.05,29.94,3,0,7,0.52
2013-7-29,77.7,71.3,66.4,72.9,69.8,65.8,99,95,84,30.06,30.00,4,1,7,0.01
2013-7-30,79.1,71.4,65.5,71.4,66.4,61.8,99,85,56,30.10,30.01,3,1,7,0.00
2013-7-31,79.0,71.0,61.0,68.5,64.9,59.9,98,82,61,30.13,30.07,3,1,7,0.00
2013-8-1,76.1,70.7,65.8,69.2,67.0,63.1,97,88,74,30.07,29.91,5,2,10,0.04
2013-8-2,78.2,70.5,64.5,73.8,67.8,63.6,99,91,78,29.91,29.81,4,2,7,0.32
2013-8-3,74.0,71.0,67.9,70.3,68.0,65.6,96,90,77,29.90,29.81,4,2,8,0.04
2013-8-4,77.6,69.1,61.1,67.9,62.6,58.7,95,81,58,29.85,29.78,4,1,7,0.00
2013-8-5,72.7,66.5,61.0,60.8,56.9,50.2,94,73,46,30.04,29.85,3,2,11,0.00
2013-8-6,73.9,66.7,58.6,60.0,56.1,51.6,91,70,49,30.19,30.03,4,1,7,0.00
2013-8-7,73.4,67.1,59.7,64.7,59.3,55.4,91,77,55,30.21,30.16,4,2,7,0.00
2013-8-8,79.3,70.9,64.8,72.5,67.4,60.7,96,89,76,30.16,30.07,5,3,9,0.00
2013-8-9,73.6,71.8,67.7,72.8,70.9,66.2,99,97,91,30.09,29.81,11,5,15,0.16
2013-8-10,83.3,74.3,65.4,72.7,68.3,59.4,99,83,47,29.99,29.80,3,1,7,0.00
2013-8-11,76.6,68.8,61.4,62.6,58.7,53.0,89,71,44,30.08,29.99,5,2,7,0.00
2013-8-12,78.1,71.0,64.4,70.9,66.9,62.0,97,87,71,30.05,29.95,3,1,7,0.00
2013-8-13,70.0,67.3,64.0,69.3,66.7,63.4,99,98,95,29.95,29.68,5,1,7,0.27
2013-8-14,75.8,67.7,61.7,66.2,60.5,54.9,99,80,52,29.94,29.67,3,1,7,0.01
2013-8-15,75.4,67.1,58.5,59.4,55.7,46.9,86,68,39,30.14,29.93,4,2,8,0.00
2013-8-16,77.7,69.3,58.8,66.1,61.7,56.6,96,78,54,30.21,30.12,4,1,8,0.00
2013-8-17,77.6,68.3,60.5,66.2,62.9,58.8,97,84,64,30.28,30.20,4,1,8,0.00
2013-8-18,72.0,65.9,60.7,67.6,62.5,58.3,98,89,73,30.29,30.09,3,1,8,0.11
2013-8-19,78.7,69.1,57.7,71.3,64.6,56.6,98,86,76,30.10,29.97,2,1,8,0.00
2013-8-20,80.4,73.2,66.1,71.3,67.4,64.0,94,83,69,30.10,29.98,3,1,8,0.00
2013-8-21,81.2,72.7,63.8,72.9,68.7,62.5,98,88,73,30.15,30.06,3,1,8,0.00
2013-8-22,79.7,73.0,70.1,74.7,71.2,68.7,98,94,83,30.06,29.86,4,2,9,0.00
2013-8-23,74.1,69.3,61.5,71.2,64.2,58.4,99,85,64,30.08,29.82,6,2,9,0.00
2013-8-24,69.2,64.4,58.1,59.5,54.0,47.9,94,70,49,30.33,30.09,6,2,11,0.00
2013-8-25,78.5,67.6,56.2,65.9,58.8,44.5,89,74,60,30.37,30.23,3,1,8,0.00
2013-8-26,76.1,71.0,68.1,68.4,65.9,59.2,94,84,73,30.23,29.91,4,2,10,0.00
2013-8-27,71.5,68.3,64.4,69.4,67.4,63.8,99,97,92,29.90,29.84,3,1,8,0.38
2013-8-28,72.8,66.3,63.5,69.0,65.2,62.9,99,96,86,29.94,29.85,2,1,8,0.01
2013-8-29,67.2,64.0,60.8,65.6,62.5,57.9,99,95,88,30.04,29.93,5,3,10,0.00
2013-8-30,72.9,66.3,58.3,68.3,63.6,57.0,98,91,80,30.02,29.87,3,1,8,0.00
2013-8-31,75.3,71.1,68.8,72.5,69.9,68.2,98,96,89,29.89,29.84,4,2,8,0.00
2013-9-1,75.2,71.5,68.8,73.0,70.7,68.5,99,97,92,29.92,29.85,4,2,10,0.41
2013-9-2,74.7,69.9,65.9,72.9,69.0,65.6,99,97,87,29.90,29.75,5,2,8,0.00
2013-9-3,78.1,70.5,64.5,74.6,69.6,63.9,99,97,87,29.82,29.71,4,1,8,0.89
2013-9-4,77.1,68.3,59.9,67.3,63.8,59.6,99,87,57,29.94,29.80,3,1,8,0.00
2013-9-5,74.5,65.1,55.5,69.0,61.4,52.0,98,88,76,30.12,29.89,4,2,8,0.01
2013-9-6,67.2,59.2,53.4,53.1,50.2,47.7,93,73,54,30.24,30.12,4,1,4,0.00
2013-9-7,73.2,64.8,54.9,60.3,56.0,49.5,86,74,58,30.13,29.89,4,2,10,0.00
2013-9-8,74.9,67.0,58.3,67.3,58.7,47.1,91,75,59,30.07,29.75,7,2,9,0.00
2013-9-9,66.1,59.8,51.3,55.6,48.2,42.1,80,66,49,30.25,30.08,4,2,8,0.00
2013-9-10,71.6,66.6,62.1,66.8,62.1,54.9,95,86,76,30.21,30.08,7,3,8,0.00
2013-9-11,77.9,71.5,68.1,72.7,69.4,66.8,98,93,82,30.12,30.01,3,2,6,0.00
2013-9-12,77.0,71.9,68.4,72.3,69.8,68.1,99,93,84,30.02,29.73,6,3,10,0.01
2013-9-13,73.5,69.4,63.1,71.2,68.2,61.4,99,96,88,29.73,29.58,6,2,9,0.07
2013-9-14,71.4,62.8,56.6,61.5,58.8,54.6,97,87,70,30.05,29.71,3,1,7,0.00
2013-9-15,69.7,60.8,51.2,58.0,54.6,50.6,98,81,60,30.17,30.05,3,1,7,0.01
2013-9-16,65.7,60.5,53.3,61.1,56.5,51.9,95,87,73,30.19,30.03,5,1,7,0.04
2013-9-17,56.3,52.2,47.1,51.4,43.9,40.1,96,74,56,30.40,30.19,6,3,12,0.01
2013-9-18,70.2,58.8,47.3,55.8,50.0,44.8,96,75,43,30.33,30.16,3,1,7,0.00
2013-9-19,72.1,63.3,55.6,61.7,57.0,53.3,93,81,61,30.16,30.06,3,1,7,0.00
2013-9-20,73.5,63.3,53.7,66.8,60.2,53.0,98,90,75,30.10,30.03,2,1,7,0.01
2013-9-21,69.6,64.0,59.1,64.7,61.8,58.5,98,93,84,30.06,29.81,6,4,10,0.01
2013-9-22,67.9,63.8,57.2,67.0,62.3,51.8,99,95,82,29.81,29.67,7,3,12,0.15
2013-9-23,59.5,54.6,49.8,51.2,46.8,45.0,87,75,61,29.98,29.79,4,2,9,0.00
2013-9-24,60.1,52.7,46.0,48.8,45.9,42.9,91,78,62,29.98,29.84,4,1,7,0.00
2013-9-25,62.6,54.3,46.8,52.6,48.8,45.4,96,82,65,29.97,29.88,3,1,7,0.00
2013-9-26,60.7,55.2,50.3,51.9,50.0,48.4,95,83,70,30.10,29.97,4,1,12,0.00
2013-9-27,60.5,57.0,51.9,55.1,53.1,50.8,97,87,78,30.25,30.10,5,2,8,0.00
2013-9-28,67.9,58.1,50.4,58.4,53.0,49.0,98,84,60,30.31,30.24,3,1,7,0.01
2013-9-29,63.4,56.4,48.4,57.6,53.5,47.3,98,90,77,30.26,30.09,3,1,7,0.01
2013-9-30,64.5,58.7,54.8,58.9,55.7,53.8,98,90,74,30.09,29.95,4,2,7,0.01
2013-10-1,67.5,60.4,53.9,60.2,54.9,51.8,97,83,60,29.95,29.86,3,1,7,0.00
2013-10-2,74.7,65.5,56.5,65.3,60.8,54.8,98,86,64,29.94,29.83,3,1,7,0.00
2013-10-3,74.3,65.1,57.7,61.3,57.7,54.1,93,78,50,30.08,29.94,3,1,7,0.00
2013-10-4,70.5,59.2,51.0,60.4,55.8,49.6,98,89,65,30.08,30.03,3,0,8,0.22
2013-10-5,65.0,60.4,56.4,62.2,58.9,55.8,98,95,85,30.12,30.06,3,0,8,0.01
2013-10-6,61.3,59.0,56.4,59.4,57.1,54.6,98,94,83,30.21,30.11,7,2,13,0.05
2013-10-7,69.0,63.7,60.4,65.7,62.4,58.7,98,96,88,30.14,29.88,8,6,13,0.11
2013-10-8,64.7,57.6,51.5,64.1,52.1,46.7,98,83,63,30.35,29.88,5,2,12,0.20
2013-10-9,59.9,55.6,53.0,49.4,47.3,45.6,85,74,65,30.43,30.35,6,3,9,0.00
2013-10-10,62.7,57.7,53.7,57.6,54.8,49.3,97,90,83,30.35,30.14,4,3,8,0.00
2013-10-11,63.5,58.9,55.2,59.1,56.9,53.8,97,93,81,30.13,30.08,6,4,9,0.00
2013-10-12,61.4,57.5,53.8,58.1,54.5,49.4,96,90,85,30.36,30.12,6,4,8,0.00
2013-10-13,58.2,53.3,44.8,49.8,47.0,42.0,91,80,67,30.43,30.34,5,3,8,0.00
2013-10-14,59.2,51.5,44.0,51.5,47.2,42.6,96,86,69,30.41,30.28,4,1,7,0.00
2013-10-15,61.6,54.8,47.9,54.9,51.4,46.8,98,89,67,30.29,30.18,3,1,7,0.01
2013-10-16,60.2,56.8,51.9,59.1,55.8,50.2,98,96,93,30.17,29.91,4,2,7,0.01
2013-10-17,66.7,60.1,55.4,62.8,58.7,54.8,98,95,86,29.91,29.77,3,1,7,0.00
2013-10-18,69.5,62.2,53.9,63.9,56.6,45.8,98,83,54,29.92,29.66,5,2,8,0.01
2013-10-19,63.1,54.6,45.9,53.6,47.8,42.4,94,79,57,30.01,29.78,6,1,6,0.02
2013-10-20,62.4,56.9,46.7,58.3,47.7,37.8,97,74,41,30.02,29.72,4,2,8,0.00
2013-10-21,64.2,54.8,44.2,51.1,44.8,37.9,85,70,51,30.14,30.03,3,2,6,0.00
2013-10-22,66.1,59.2,53.8,60.1,55.4,46.8,95,87,76,30.04,29.72,4,2,6,0.00
2013-10-23,53.6,48.4,42.9,45.6,42.0,37.8,97,79,64,29.79,29.59,2,1,7,0.20
2013-10-24,52.7,45.7,39.9,42.0,35.8,29.2,97,71,44,29.91,29.64,3,1,6,0.00
2013-10-25,50.5,43.6,37.1,39.3,33.7,31.0,86,68,54,30.18,29.91,3,1,5,0.00
2013-10-26,56.2,47.8,35.3,47.4,38.8,29.3,88,71,59,30.20,29.92,6,3,13,0.00
2013-10-27,57.4,51.4,45.4,47.7,39.1,33.3,84,63,52,30.08,29.84,3,1,5,0.00
2013-10-28,56.5,47.9,37.0,45.3,38.1,32.6,84,69,55,30.33,30.08,4,1,6,0.00
2013-10-29,51.5,43.8,37.9,38.7,36.2,33.8,89,75,60,30.42,30.34,3,1,5,0.00
2013-10-30,50.9,46.2,38.4,48.4,42.8,34.7,95,88,79,30.40,30.23,1,0,2,0.03
2013-10-31,60.2,54.2,43.9,58.1,52.1,42.8,98,93,82,30.27,29.92,6,2,9,0.00
2013-11-1,63.5,60.5,58.4,62.4,59.4,56.9,98,96,93,29.91,29.56,10,6,19,0.07
2013-11-2,59.1,55.9,52.9,58.2,54.3,51.5,98,94,83,29.74,29.60,2,0,3,0.08
2013-11-3,54.3,45.6,39.8,53.7,40.8,30.5,98,84,63,30.35,29.72,7,4,12,0.03
2013-11-4,41.7,39.1,36.9,30.6,28.4,26.2,75,65,56,30.70,30.36,7,3,9,0.00
2013-11-5,49.4,41.8,37.0,37.7,34.6,30.4,88,76,59,30.72,30.56,2,0,4,0.00
2013-11-6,55.1,49.1,39.7,53.5,46.2,36.4,98,90,77,30.57,30.13,4,2,8,0.00
2013-11-7,59.2,54.5,45.7,58.6,53.6,41.1,99,97,84,30.13,29.70,7,2,13,1.48
2013-11-8,49.0,43.2,38.1,40.4,31.5,25.0,84,64,52,30.10,29.80,4,2,9,0.00
2013-11-9,45.1,39.3,34.3,29.2,26.5,24.1,74,60,45,30.20,30.10,4,1,6,0.00
2013-11-10,56.9,48.6,38.7,51.1,42.9,30.1,93,81,67,30.11,29.74,4,2,8,0.10
2013-11-11,51.4,45.9,39.3,47.3,36.0,30.5,86,69,48,30.10,29.88,4,2,13,0.00
2013-11-12,51.9,38.5,30.0,48.0,34.5,25.0,97,86,63,30.16,29.90,6,2,9,0.16
2013-11-13,31.5,31.1,30.7,25.6,25.0,24.3,79,78,77,30.18,30.16,4,3,9,0.00
2013-11-20,39.4,36.3,33.8,25.9,24.0,21.7,70,61,55,30.60,30.50,7,3,15,0.00
2013-11-21,46.7,39.3,33.4,36.0,31.2,25.1,89,73,58,30.64,30.43,4,1,15,0.00
2013-11-22,51.1,46.8,38.7,50.8,45.7,35.7,99,96,89,30.42,29.84,3,1,15,0.24
2013-11-23,48.4,42.9,33.0,47.5,32.1,17.1,98,67,39,29.87,29.77,5,2,15,0.00
2013-11-24,33.0,26.3,22.9,20.7,9.6,2.4,61,49,36,30.15,29.78,8,5,22,0.00
2013-11-25,38.0,26.3,20.2,32.7,9.0,-0.4,82,49,26,30.40,30.15,5,2,15,0.00
2013-11-26,48.2,42.3,38.6,47.7,36.7,32.6,98,81,68,30.36,30.08,7,2,15,0.07
2013-11-27,56.3,50.8,39.4,56.3,50.5,39.1,100,99,97,30.08,29.16,17,8,23,1.36
2013-11-28,39.4,32.8,26.7,38.8,22.5,13.4,99,67,47,30.44,29.46,5,3,15,0.00
2013-11-29,34.4,29.3,24.9,21.5,17.1,13.2,71,60,54,30.72,30.44,4,1,15,0.00
2013-11-30,37.2,30.5,23.9,30.0,21.1,13.5,77,68,53,30.78,30.50,5,2,15,0.00
2013-12-1,47.5,43.5,37.4,47.0,40.2,30.2,98,88,75,30.49,29.98,8,5,15,0.22
2013-12-2,45.5,41.7,38.2,45.0,40.9,37.2,99,97,94,29.98,29.90,3,1,15,0.01
2013-12-3,44.3,40.7,35.4,41.9,39.2,34.1,97,94,90,29.93,29.81,5,2,15,0.00
2013-12-4,43.5,37.6,32.5,35.7,32.5,30.3,96,82,60,30.23,29.93,3,1,15,0.00
2013-12-5,49.1,45.4,36.2,48.8,44.1,34.8,99,95,92,30.24,29.99,8,3,15,0.00
2013-12-6,54.4,46.7,37.4,54.4,46.3,36.6,100,98,93,30.11,29.92,5,2,15,0.34
2013-12-7,39.4,36.4,32.5,37.5,32.1,21.3,98,85,61,30.44,30.04,4,2,15,0.34
2013-12-8,34.0,31.2,28.2,25.0,22.1,20.8,77,69,59,30.60,30.44,4,1,15,0.00
2013-12-9,46.9,39.8,32.2,46.6,38.6,25.1,99,96,72,30.50,29.86,11,4,15,0.34
2013-12-10,37.9,32.9,26.5,37.4,31.5,22.0,98,94,80,30.01,29.79,3,1,15,0.00
2013-12-11,33.0,28.8,24.4,24.5,20.7,17.9,85,72,58,30.19,30.02,3,2,15,0.00
2013-12-12,27.8,23.7,17.5,19.8,11.8,4.6,79,61,47,30.26,30.14,6,2,11,0.00
2013-12-13,31.4,24.8,16.1,17.5,12.6,6.5,70,60,46,30.35,30.03,5,2,11,0.00
2013-12-14,31.4,24.6,20.0,30.9,19.3,10.7,98,80,66,30.58,30.18,9,4,11,0.00
2013-12-15,47.8,34.6,26.1,47.8,33.6,23.4,100,96,81,30.16,29.32,16,6,23,0.66
2013-12-16,30.8,27.3,22.1,24.9,15.8,8.8,85,63,43,30.23,29.78,4,2,11,0.00
2013-12-17,42.3,27.5,15.6,41.2,21.7,9.4,99,80,48,30.28,29.83,13,3,17,0.11
2013-12-18,37.8,32.0,27.7,37.3,28.3,21.5,98,87,71,30.12,29.73,6,3,12,0.01
2013-12-19,42.9,36.1,28.5,37.8,30.8,22.6,91,81,75,30.15,30.00,4,2,11,0.00
2013-12-20,46.2,40.0,34.6,43.9,38.4,32.2,99,94,82,30.17,29.99,4,1,11,0.00
2013-12-21,46.0,43.2,40.5,45.1,42.8,40.0,99,98,96,30.05,29.95,4,2,11,0.01
2013-12-22,53.0,46.5,42.9,53.0,46.4,42.7,100,100,99,30.03,29.90,4,2,11,0.01
2013-12-23,47.6,43.2,39.0,47.6,43.1,38.7,100,100,99,30.07,29.95,5,1,11,0.43
2013-12-24,39.6,34.4,28.1,39.3,32.3,22.5,99,92,71,30.18,30.00,6,3,12,0.32
2013-12-25,28.6,22.9,18.5,22.3,16.9,11.9,87,78,65,30.56,30.18,5,2,11,0.00
2013-12-26,39.5,31.5,20.6,36.5,28.8,17.6,98,90,75,30.52,30.07,8,3,11,0.28
2013-12-27,35.9,30.3,26.1,27.1,23.3,21.0,93,76,58,30.29,30.21,4,1,11,0.00
2013-12-28,45.0,37.4,29.2,38.6,32.8,23.1,97,84,75,30.27,30.04,4,2,11,0.00
2013-12-29,48.8,41.2,35.9,48.5,40.5,35.1,99,98,95,30.08,29.30,15,3,15,0.90
2013-12-30,42.7,36.4,25.9,41.0,30.6,16.1,99,81,55,30.14,29.39,6,2,11,0.00
2013-12-31,27.2,24.5,18.6,24.2,17.2,10.9,94,74,53,30.18,30.04,5,2,11,0.00
2014-1-1,29.4,24.5,21.1,15.9,11.5,8.2,70,57,47,30.39,30.18,4,2,11,0.00
2014-1-2,31.5,27.7,24.5,30.7,24.2,13.2,97,87,60,30.37,30.03,9,4,11,0.00